Location: Aufkirchen
(47.9603°N, 11.3653°E)
Time: 12:20:51
(UTC+01:00)

deb Explorer IX - Pass Details

Date: 28 November 2020
Orbit: 536 x 1104 km, 38.8° (Epoch: 19 January)

Event Time Altitude Azimuth Distance (km) Brightness Sun altitude
Rises 17:52:42 0° 237° (WSW) 3,473 ? -14.2°
Reaches altitude 10° 17:55:47 10° 226° (SW) 2,427 ? -14.6°
Maximum altitude 18:00:27 27° 171° (S) 1,419 ? -15.4°
Enters shadow 18:03:37 15° 122° (ESE) 1,847 ? -15.9°
